Terminal Aerodrome Forecast
Issued by NWS

Home | Current Version | Previous Version | Text Only | Print | Product List | Glossary On
Versions: 1 2 3 4 5 6 7 8 9 10 11 12 13 14
000
FTUS44 KOUN 261123
TAFWWR
TAF
KWWR 261123Z 2612/2712 21007KT P6SM SCT080
     FM262100 36014KT P6SM BKN070
     FM270200 33008KT P6SM SKC=

USA.gov is the U.S. government's official web portal to all federal, state and local government web resources and services.